Powrót do katalogu

STARLINK-36702

AktywnyŁącznośćSSO
NORAD 67714·PAYLOAD·🇺🇸 United States

Wystrzelony Feb 7, 2026 z Vandenberg Space Force Base

Loading…

Następne Przeloty (najbliższe 24 godziny)

TLE

ŚwieżeSource: CelesTrak SupGP

Epoka: Sep 14, 2026, 23:08 UTC

1 67714C 26025X   26257.96437500 -.00036034  00000+0 -11184-2 0  2577
2 67714  97.2853   7.9198 0001038  91.3351 348.6206 15.33462879    17

Śledź STARLINK-36702 w czasie rzeczywistym z AllMySat

Download on the App Store